Regional Weather Roundup
Issued by NWS

Home | Current Version | Previous Version | Text Only | Print | Product List | Glossary On
Versions: 1 2 3 4 5 6 7 8 9 10 11 12 13 14 15 16 17 18 19 20 21 22 23 24 25 26 27 28 29 30 31 32 33 34 35 36 37 38 39 40 41 42 43 44 45 46 47 48 49 50
000
ASUS45 KABQ 112310
RWRNM
NEW MEXICO REGIONAL WEATHER ROUNDUP
NATIONAL WEATHER SERVICE ALBUQUERQUE NM
400 PM MST THU FEB 11 2016

NOTE: "FAIR" MEANS FEW OR NO CLOUDS BELOW 12,000 FEET AGL WITH NO
       SIGNIFICANT WEATHER OR OBSTRUCTIONS TO VISION.

      THIS PRODUCT IS RELEASED AS TWO VERSIONS.  ONE VERSION NEAR
      THE TOP OF THE HOUR CONTAINING PRELIMINARY DATA FROM ALBUQUERQUE
      AND OTHER STATIONS.  A FINAL VERSION WITH ADDITIONAL DATA IS
      ISSUED ABOUT 10 MINUTES AFTER THE HOUR.

NMZ501-503-504-510>518-120000-
NORTHWEST PLATEAU/NORTHCENTRAL MOUNTAINS

CITY           SKY/WX    TMP DP  RH WIND       PRES   REMARKS
FARMINGTON     CLOUDY    54  24  31 W10       30.31S
LOS ALAMOS     SUNNY     56  18  22 E3        30.32R
SANTA FE       SUNNY     61  14  16 SW7       30.26S
TAOS           SUNNY     55  10  16 N8        30.31S
ANGEL FIRE     FAIR      46  16  30 W10       30.33R

$$
NMZ402-403-502-505>509-120000-
WESTCENTRAL MOUNTAINS/SOUTHWEST MOUNTAINS

CITY           SKY/WX    TMP DP  RH WIND       PRES   REMARKS
GALLUP         SUNNY     62  16  16 N6        30.34R
GRANTS           N/A    N/A N/A N/A MISG        N/A
SILVER CITY      N/A     72   0   6 W5        30.26S

$$
NMZ407-409-411-412-120000-
SOUTHERN DESERTS

CITY           SKY/WX    TMP DP  RH WIND       PRES   REMARKS
LORDSBURG      FAIR      72  14  11 W9        30.21S
DEMING         SUNNY     74  11   9 S7        30.21S
LAS CRUCES     SUNNY     72   9   8 N5        30.22F
HOLLOMAN AFB   SUNNY     72   5   7 NW10      30.18S
ALAMOGORDO     SUNNY     73   5   7 NW10G18   30.19S
T OR C         SUNNY     70  10  10 CALM      30.22S

$$
NMZ519>523-120000-
CENTRAL VALLEYS/CENTRAL HIGHLANDS

CITY           SKY/WX    TMP DP  RH WIND       PRES   REMARKS
ALBUQUERQUE    MOSUNNY   66  10  11 NW12      30.25S
DOUBLE EAGLE   MOSUNNY   64  10  12 W14G25    30.28S
MORIARTY ARPT  FAIR      63   9  12 NW9       30.27S
CLINES CORNERS SUNNY     57  14  18 NW18      30.26S
BELEN          FAIR      67  11  11 N8        30.25S
SOCORRO        FAIR      68  14  12 N12       30.23S

$$
NMZ524>526-539-540-120000-
SOUTHCENTRAL MOUNTAINS

CITY           SKY/WX    TMP DP  RH WIND       PRES   REMARKS
RUIDOSO        SUNNY     61   0   8 NW12      30.31S

$$
NMZ527>531-120000-
NORTHEAST HIGHLANDS/NORTHEAST PLAINS

CITY           SKY/WX    TMP DP  RH WIND       PRES   REMARKS
LAS VEGAS      SUNNY     64   7  10 NW7       30.22R
RATON          SUNNY     65   7  10 CALM      30.18R
CLAYTON        CLOUDY    66  15  14 S14G22    30.13R

$$
NMZ532>537-120000-
EASTCENTRAL PLAINS

CITY           SKY/WX    TMP DP  RH WIND       PRES   REMARKS
TUCUMCARI      SUNNY     71   9   9 SW9       30.13S
CANNON AFB     SUNNY     68  16  13 VRB3      30.17R
CLOVIS AIRPORT SUNNY     66  18  15 SW6       30.19R

$$
NMZ028-029-538-120000-
SOUTHEAST PLAINS

CITY           SKY/WX    TMP DP  RH WIND       PRES   REMARKS
ROSWELL        SUNNY     71  15  11 SE6       30.14F
ARTESIA        SUNNY     72  21  15 NW5       30.16S
CARLSBAD       SUNNY     72  19  13 NW8       30.14S
HOBBS          SUNNY     70  19  14 N5        30.16S


$$



USA.gov is the U.S. government's official web portal to all federal, state and local government web resources and services.